�N����,����,�~����,�C��,���x,�C��,����,���ϕ���,�ő�u�ԕ���,�ő厞����,���˗�,�I�_���x,�n�����x,�ő啗���N��,DTYPE
"19/08/20","00:10",0.0,24.3,95.2,1004.5,331.2,0.3,0.9,354.8,0.00,23.5,26.2,"00:06:40",1
"19/08/20","00:20",0.0,24.3,95.4,1004.8,263.5,0.2,0.6,302.1,0.00,23.6,26.3,"00:19:36",1
"19/08/20","00:30",0.0,24.3,95.4,1004.8,297.6,0.1,0.6,310.1,0.00,23.6,26.2,"00:20:32",1
"19/08/20","00:40",0.0,24.1,95.4,1005.0,346.4,0.2,0.6,332.3,0.00,23.4,26.4,"00:37:20",1
"19/08/20","00:50",0.0,24.1,95.6,1005.0,2.5,0.1,0.5,311.9,0.00,23.4,26.2,"00:40:08",1
"19/08/20","01:00",0.0,24.0,95.5,1004.8,342.0,0.5,0.8,340.9,0.00,23.3,26.3,"00:59:52",1
"19/08/20","01:10",0.0,23.8,95.5,1005.0,337.5,0.7,1.1,351.3,0.00,23.1,26.1,"01:06:48",1
"19/08/20","01:20",0.0,23.8,95.8,1004.8,327.0,0.3,0.6,341.5,0.00,23.1,26.2,"01:10:08",1
"19/08/20","01:30",0.0,24.0,95.8,1004.5,289.6,0.2,0.8,329.3,0.00,23.3,26.1,"01:20:16",1
"19/08/20","01:40",0.0,24.0,95.8,1004.8,282.0,0.3,0.8,234.9,0.00,23.3,25.9,"01:34:24",1
"19/08/20","01:50",0.0,24.0,95.9,1004.5,341.9,0.2,0.5,352.8,0.00,23.3,26.0,"01:40:08",1
"19/08/20","02:00",0.0,24.0,95.8,1004.5,316.3,0.3,0.8,334.5,0.00,23.3,26.1,"01:58:16",1
"19/08/20","02:10",0.0,24.0,95.8,1004.5,325.5,0.5,1.0,338.6,0.00,23.3,25.9,"02:03:36",1
"19/08/20","02:20",0.0,24.0,95.9,1004.5,317.8,0.1,0.4,291.4,0.00,23.3,26.0,"02:10:56",1
"19/08/20","02:30",0.0,24.1,95.8,1004.3,277.6,0.2,0.5,234.6,0.00,23.4,26.0,"02:23:12",1
"19/08/20","02:40",0.0,24.1,95.9,1004.3,318.8,0.1,0.5,326.9,0.00,23.4,26.0,"02:31:20",1
"19/08/20","02:50",0.0,24.2,96.0,1004.3,312.1,0.0,0.3,251.1,0.00,23.6,25.9,"02:40:08",1
"19/08/20","03:00",0.0,24.2,95.8,1004.5,293.2,0.2,0.8,284.9,0.00,23.5,26.1,"02:50:02",1
"19/08/20","03:10",0.0,24.2,96.0,1004.8,339.6,0.5,0.9,316.3,0.00,23.6,26.2,"03:01:28",1
"19/08/20","03:20",0.0,24.2,95.9,1004.5,289.2,0.3,1.1,341.2,0.00,23.5,25.9,"03:11:28",1
"19/08/20","03:30",0.0,24.3,96.0,1004.3,272.8,0.1,0.6,348.1,0.00,23.7,25.9,"03:29:04",1
"19/08/20","03:40",0.0,24.4,96.0,1005.0,326.3,0.2,0.9,342.4,0.00,23.8,26.0,"03:31:28",1
"19/08/20","03:50",0.0,24.4,96.0,1005.0,271.9,0.0,0.3,257.3,0.00,23.8,26.0,"03:41:12",1
"19/08/20","04:00",0.0,24.3,96.0,1005.0,357.7,0.6,1.1,2.7,0.00,23.7,25.9,"03:55:12",1
"19/08/20","04:10",0.0,24.3,96.0,1005.0,347.9,0.5,1.2,12.9,0.00,23.7,26.1,"04:03:12",1
"19/08/20","04:20",0.0,24.3,96.0,1005.0,270.5,0.1,0.5,247.8,0.00,23.7,25.9,"04:18:32",1
"19/08/20","04:30",0.0,24.3,96.0,1005.0,296.4,0.2,0.6,263.5,0.00,23.7,26.0,"04:25:20",1
"19/08/20","04:40",0.0,24.4,96.1,1004.8,357.1,0.6,1.1,340.6,0.00,23.8,26.1,"04:36:56",1
"19/08/20","04:50",0.0,24.3,96.0,1004.8,349.9,0.6,1.2,344.8,0.00,23.7,26.0,"04:48:32",1
"19/08/20","05:00",0.0,24.3,96.0,1004.5,332.4,0.3,1.1,338.2,0.00,23.7,26.0,"04:53:20",1
"19/08/20","05:10",0.0,24.3,96.1,1004.8,309.4,0.1,0.3,295.0,0.00,23.7,25.9,"05:00:08",1
"19/08/20","05:20",0.0,24.4,96.1,1005.0,319.2,0.3,0.8,341.8,0.00,23.8,26.1,"05:18:40",1
"19/08/20","05:30",0.0,24.3,96.1,1004.5,313.6,0.5,1.1,340.1,0.00,23.7,25.8,"05:29:04",1
"19/08/20","05:40",0.0,24.3,96.1,1004.8,306.3,0.5,1.0,330.2,0.00,23.7,26.0,"05:30:48",1
"19/08/20","05:50",0.0,24.4,96.2,1004.5,290.8,0.2,0.8,349.7,0.00,23.8,25.9,"05:41:44",1
"19/08/20","06:00",0.2,24.3,96.1,1005.0,288.8,0.2,1.0,246.2,0.00,23.7,25.9,"05:57:12",1
"19/08/20","06:10",0.4,24.2,96.1,1004.5,312.4,0.5,1.6,344.7,0.00,23.6,26.0,"06:07:44",1
"19/08/20","06:20",0.0,24.2,96.2,1004.8,344.5,0.8,1.7,359.7,0.00,23.6,25.8,"06:14:24",1
"19/08/20","06:30",0.2,24.3,96.3,1005.0,323.2,0.3,1.2,334.0,0.00,23.7,25.9,"06:21:04",1
"19/08/20","06:40",0.0,24.4,96.3,1005.0,255.3,0.3,1.0,238.1,0.00,23.8,25.9,"06:34:40",1
"19/08/20","06:50",0.0,24.4,96.1,1005.0,297.7,0.2,0.8,331.1,0.00,23.8,26.2,"06:42:40",1
"19/08/20","07:00",0.0,24.4,96.2,1005.0,282.9,0.2,0.6,331.9,0.00,23.8,26.0,"06:57:36",1
"19/08/20","07:10",0.6,24.5,96.3,1005.2,331.6,0.5,1.3,350.2,0.00,23.9,26.0,"07:08:48",1
"19/08/20","07:20",0.2,24.7,96.2,1004.8,328.2,0.6,1.4,340.2,0.02,24.1,25.9,"07:11:04",1
"19/08/20","07:30",0.0,24.7,96.1,1005.2,287.5,0.3,1.0,332.6,0.01,24.1,26.1,"07:22:00",1
"19/08/20","07:40",0.0,24.7,96.1,1005.0,320.0,0.3,1.2,338.3,0.01,24.1,26.1,"07:37:36",1
"19/08/20","07:50",0.0,24.8,96.2,1005.2,274.8,0.5,0.9,233.8,0.02,24.2,26.1,"07:44:40",1
"19/08/20","08:00",0.2,25.0,96.1,1005.5,299.8,0.5,1.0,313.7,0.03,24.4,26.0,"07:50:32",1
"19/08/20","08:10",0.0,25.0,96.0,1005.2,241.0,0.6,1.2,232.1,0.03,24.4,26.0,"08:06:40",1
"19/08/20","08:20",0.0,24.9,95.9,1005.2,254.9,0.3,1.0,239.9,0.01,24.2,26.0,"08:11:52",1
"19/08/20","08:30",0.0,24.8,96.0,1005.5,235.7,0.3,1.0,194.8,0.00,24.2,26.2,"08:29:44",1
"19/08/20","08:40",0.0,24.8,95.9,1005.2,221.8,0.6,1.8,215.1,0.00,24.1,26.2,"08:33:28",1
"19/08/20","08:50",0.2,24.9,96.0,1005.7,95.0,0.5,1.2,311.3,0.00,24.3,26.0,"08:40:02",1
"19/08/20","09:00",2.2,24.9,96.0,1005.5,293.6,0.7,1.7,344.2,0.00,24.3,26.0,"08:52:40",1
"19/08/20","09:10",1.2,24.9,96.2,1005.5,323.6,0.6,1.1,299.7,0.02,24.3,26.2,"09:00:48",1
"19/08/20","09:20",0.2,24.9,96.0,1005.2,316.1,0.2,1.0,328.9,0.02,24.3,26.1,"09:15:36",1
"19/08/20","09:30",0.6,24.9,96.2,1005.7,176.4,0.3,0.8,186.9,0.02,24.3,26.1,"09:28:32",1
"19/08/20","09:40",0.6,25.0,95.9,1005.7,215.3,0.2,0.8,196.3,0.04,24.3,26.2,"09:30:16",1
"19/08/20","09:50",0.2,25.1,95.8,1005.7,300.0,0.3,1.3,336.3,0.05,24.4,26.0,"09:47:30",1
"19/08/20","10:00",0.2,25.3,96.0,1006.0,261.3,0.3,1.0,229.4,0.12,24.7,26.2,"09:56:26",1
"19/08/20","10:10",0.0,25.6,95.5,1005.5,238.1,0.6,1.3,231.7,0.31,24.9,26.3,"10:02:08",1
"19/08/20","10:20",0.0,25.8,95.2,1005.5,263.3,0.3,1.2,335.5,0.24,25.0,26.3,"10:11:04",1
"19/08/20","10:30",0.0,26.0,94.9,1005.2,203.7,0.3,1.1,214.6,0.14,25.2,26.6,"10:29:20",1
"19/08/20","10:40",0.0,26.0,93.7,1005.0,212.8,0.3,1.2,195.3,0.06,24.9,26.4,"10:30:08",1
"19/08/20","10:50",0.0,25.7,94.0,1005.0,202.1,0.1,0.4,150.4,0.09,24.7,26.6,"10:42:00",1
"19/08/20","11:00",0.0,26.2,93.1,1004.8,185.6,0.1,0.5,193.2,0.14,25.0,26.7,"10:55:36",1
"19/08/20","11:10",0.0,26.4,92.5,1004.8,221.0,0.2,0.8,185.1,0.15,25.1,26.6,"11:08:00",1
"19/08/20","11:20",2.8,26.6,91.0,1005.0,334.0,1.2,2.5,342.3,0.03,25.0,26.8,"11:16:40",1
"19/08/20","11:30",6.8,26.0,91.2,1005.5,351.8,1.0,2.0,338.0,0.03,24.5,26.6,"11:24:58",1
"19/08/20","11:40",2.6,26.2,92.1,1005.5,247.1,0.3,1.1,133.5,0.07,24.9,26.6,"11:32:48",1
"19/08/20","11:50",0.0,26.1,93.0,1005.0,209.6,0.8,1.7,227.2,0.13,24.9,26.5,"11:45:20",1
"19/08/20","12:00",0.2,26.1,93.2,1005.0,210.4,0.3,1.4,195.6,0.16,25.0,26.5,"11:50:16",1
"19/08/20","12:10",0.2,26.2,93.4,1004.8,219.8,0.6,1.4,224.6,0.13,25.1,26.6,"12:03:36",1
"19/08/20","12:20",0.0,26.5,93.5,1004.5,199.3,1.1,1.7,191.1,0.16,25.4,26.5,"12:18:32",1
"19/08/20","12:30",0.0,26.8,93.7,1004.5,201.5,1.1,2.0,210.0,0.25,25.7,26.4,"12:20:56",1
"19/08/20","12:40",0.0,26.7,92.6,1004.3,146.4,0.8,1.9,126.0,0.38,25.4,26.9,"12:36:08",1
"19/08/20","12:50",0.0,27.2,92.3,1003.1,164.0,0.3,1.2,57.2,0.21,25.9,26.8,"12:40:32",1
"19/08/20","13:00",0.0,27.3,92.1,1003.6,350.8,0.5,1.4,13.9,0.19,25.9,26.7,"12:55:44",1
"19/08/20","13:10",0.2,26.9,92.1,1004.1,333.8,0.5,1.1,58.3,0.09,25.5,26.9,"13:00:48",1
"19/08/20","13:20",0.0,27.1,92.1,1004.1,185.1,0.1,0.9,98.0,0.09,25.7,27.0,"13:19:12",1
"19/08/20","13:30",0.0,27.3,92.2,1004.1,8.4,0.5,1.0,355.3,0.11,26.0,27.1,"13:24:24",1
"19/08/20","13:40",0.0,27.5,91.6,1004.3,324.6,0.6,1.6,344.3,0.17,26.0,27.1,"13:31:36",1
"19/08/20","13:50",0.0,28.1,91.8,1003.4,297.7,0.2,1.0,231.5,0.22,26.7,27.0,"13:42:16",1
"19/08/20","14:00",0.0,28.4,89.8,1003.4,356.6,0.5,1.2,337.1,0.30,26.6,27.2,"13:53:36",1
"19/08/20","14:10",0.0,28.5,88.5,1004.1,24.7,0.6,1.8,347.9,0.28,26.5,27.2,"14:03:04",1
"19/08/20","14:20",0.0,28.9,87.5,1004.3,57.8,0.2,0.9,302.3,0.26,26.7,27.2,"14:10:40",1
"19/08/20","14:30",0.0,29.6,86.8,1004.3,93.7,0.6,1.9,137.7,0.30,27.2,27.4,"14:25:04",1
"19/08/20","14:40",0.0,30.0,84.3,1004.8,0.3,0.6,1.8,36.9,0.27,27.1,27.4,"14:38:24",1
"19/08/20","14:50",0.0,29.9,83.9,1004.5,316.1,0.7,2.6,344.2,0.23,26.9,27.6,"14:42:40",1
"19/08/20","15:00",0.0,29.9,81.4,1004.3,237.3,0.6,1.4,208.5,0.19,26.4,27.7,"14:51:36",1
"19/08/20","15:10",0.0,30.0,78.2,1004.1,266.7,0.6,1.6,262.6,0.19,25.8,27.6,"15:03:52",1
"19/08/20","15:20",0.0,30.6,76.9,1004.3,233.8,0.6,1.8,244.9,0.24,26.1,27.7,"15:11:44",1
"19/08/20","15:30",0.0,30.8,75.8,1004.1,209.1,0.6,2.1,226.4,0.27,26.1,28.0,"15:29:28",1
"19/08/20","15:40",0.0,30.8,73.8,1004.3,272.5,0.6,2.0,335.0,0.29,25.6,27.8,"15:37:20",1
"19/08/20","15:50",0.0,30.4,77.2,1004.3,341.2,0.6,1.7,334.8,0.16,26.0,27.9,"15:41:28",1
"19/08/20","16:00",0.0,30.5,77.2,1004.1,314.6,0.2,1.0,335.0,0.13,26.1,27.8,"15:56:16",1
"19/08/20","16:10",0.0,30.3,77.8,1004.1,350.1,0.6,1.3,3.6,0.12,26.0,28.2,"16:02:32",1
"19/08/20","16:20",0.0,30.2,79.6,1003.8,335.7,0.7,1.9,351.6,0.13,26.3,27.9,"16:16:40",1
"19/08/20","16:30",0.0,30.2,79.1,1003.6,334.1,0.8,2.5,343.6,0.14,26.2,28.1,"16:25:04",1
"19/08/20","16:40",0.0,30.2,80.6,1003.6,345.1,1.2,2.1,319.7,0.14,26.5,28.0,"16:31:20",1
"19/08/20","16:50",0.0,30.0,81.3,1003.1,348.2,1.0,2.2,337.7,0.11,26.5,28.0,"16:47:28",1
"19/08/20","17:00",0.0,30.0,81.3,1002.9,328.0,0.7,2.4,353.0,0.09,26.5,28.3,"16:51:04",1
"19/08/20","17:10",0.0,30.1,80.1,1002.6,337.2,0.8,1.8,348.8,0.08,26.3,28.2,"17:06:00",1
"19/08/20","17:20",0.0,30.1,80.2,1002.6,342.2,1.2,2.4,338.1,0.07,26.3,28.3,"17:18:00",1
"19/08/20","17:30",0.0,30.0,80.4,1002.4,331.3,1.0,2.6,335.9,0.07,26.3,28.4,"17:21:20",1
"19/08/20","17:40",0.0,30.1,81.0,1002.4,334.0,1.0,2.1,318.2,0.07,26.5,28.3,"17:32:56",1
"19/08/20","17:50",0.0,30.2,81.5,1002.4,342.6,1.0,2.5,342.7,0.06,26.7,28.2,"17:41:36",1
"19/08/20","18:00",0.0,30.1,81.7,1002.4,306.2,0.5,1.7,351.5,0.05,26.7,27.9,"17:52:08",1
"19/08/20","18:10",0.0,29.9,82.0,1002.6,322.3,0.5,1.2,358.1,0.03,26.5,28.2,"18:03:44",1
"19/08/20","18:20",0.0,29.7,82.5,1002.4,329.8,1.0,2.0,325.8,0.02,26.4,28.2,"18:10:16",1
"19/08/20","18:30",0.0,29.5,83.2,1002.4,315.7,0.7,1.9,350.1,0.01,26.4,28.2,"18:23:44",1
"19/08/20","18:40",0.0,29.3,84.1,1001.9,316.9,0.5,1.3,328.4,0.00,26.4,28.2,"18:32:24",1
"19/08/20","18:50",0.0,29.1,84.6,1001.9,338.4,0.7,1.4,338.8,0.00,26.3,28.2,"18:49:04",1
"19/08/20","19:00",0.0,28.8,85.0,1002.4,318.3,0.6,1.1,330.6,0.00,26.1,28.0,"18:50:16",1
"19/08/20","19:10",0.0,29.0,85.9,1002.6,353.0,0.6,1.4,19.8,0.00,26.4,28.1,"19:07:44",1
"19/08/20","19:20",0.0,28.6,86.6,1002.9,335.6,0.6,1.3,7.4,0.00,26.2,28.1,"19:10:48",1
"19/08/20","19:30",0.0,28.5,87.6,1002.6,339.4,0.7,1.3,351.6,0.00,26.3,27.8,"19:26:48",1
"19/08/20","19:40",0.0,28.3,88.2,1003.1,324.8,1.0,1.6,341.1,0.00,26.2,28.0,"19:31:04",1
"19/08/20","19:50",0.0,28.1,88.6,1003.4,318.6,0.6,1.3,350.7,0.00,26.1,28.0,"19:48:00",1
"19/08/20","20:00",0.0,27.9,89.0,1003.1,290.0,0.5,1.2,336.6,0.00,26.0,27.9,"19:50:16",1
"19/08/20","20:10",0.0,27.9,89.5,1003.1,325.0,0.5,1.6,334.4,0.00,26.1,28.0,"20:09:20",1
"19/08/20","20:20",0.0,27.9,89.9,1003.1,338.7,0.7,1.3,327.4,0.00,26.1,27.9,"20:12:16",1
"19/08/20","20:30",0.0,27.7,90.2,1003.6,310.4,1.0,1.4,316.2,0.00,26.0,27.9,"20:26:40",1
"19/08/20","20:40",0.0,27.5,90.4,1003.6,261.7,0.7,1.0,263.1,0.00,25.8,27.9,"20:32:32",1
"19/08/20","20:50",0.0,27.5,91.0,1003.6,308.3,0.6,1.0,337.1,0.00,25.9,27.8,"20:46:56",1
"19/08/20","21:00",0.0,27.6,91.1,1003.8,329.6,0.8,1.2,341.0,0.00,26.1,27.8,"20:56:16",1
"19/08/20","21:10",0.0,27.6,91.3,1003.8,314.7,0.6,1.1,314.9,0.00,26.1,27.8,"21:02:16",1
"19/08/20","21:20",0.0,27.4,91.1,1003.8,315.5,0.8,1.7,333.9,0.00,25.9,27.5,"21:19:12",1
"19/08/20","21:30",0.0,27.2,91.6,1003.6,303.8,0.6,1.3,325.3,0.00,25.8,27.6,"21:21:36",1
"19/08/20","21:40",0.0,27.1,91.8,1003.8,280.9,0.6,1.2,304.7,0.00,25.7,27.5,"21:38:40",1
"19/08/20","21:50",0.0,27.0,92.0,1004.1,308.6,0.7,1.3,323.2,0.00,25.6,27.5,"21:45:12",1
"19/08/20","22:00",0.0,27.0,92.2,1004.3,286.2,0.6,1.2,257.8,0.00,25.7,27.5,"21:56:24",1
"19/08/20","22:10",0.0,26.9,92.5,1003.8,283.4,0.5,0.9,260.0,0.00,25.6,27.6,"22:00:16",1
"19/08/20","22:20",0.0,27.0,92.3,1004.3,324.2,0.8,1.4,322.8,0.00,25.7,27.5,"22:17:36",1
"19/08/20","22:30",0.0,26.8,92.4,1003.8,341.9,0.8,1.2,339.7,0.00,25.5,27.4,"22:20:32",1
"19/08/20","22:40",0.0,26.8,92.7,1004.5,290.5,0.7,1.2,335.0,0.00,25.6,27.3,"22:32:24",1
"19/08/20","22:50",0.0,26.9,92.8,1004.1,279.7,0.6,1.0,248.5,0.00,25.7,27.2,"22:49:44",1
"19/08/20","23:00",0.0,26.8,92.7,1004.3,285.5,0.5,0.9,311.6,0.00,25.6,27.2,"22:59:36",1
"19/08/20","23:10",0.0,26.7,92.8,1004.3,291.5,0.7,1.2,323.9,0.00,25.5,27.3,"23:01:20",1
"19/08/20","23:20",0.0,26.7,92.8,1004.1,319.4,1.0,1.4,337.5,0.00,25.5,27.1,"23:16:16",1
"19/08/20","23:30",0.0,26.6,93.0,1004.1,334.1,1.0,1.4,350.9,0.00,25.4,27.2,"23:21:12",1
"19/08/20","23:40",0.0,26.5,93.0,1004.3,321.4,0.8,1.3,318.4,0.00,25.3,27.2,"23:38:08",1
"19/08/20","23:50",0.0,26.4,93.3,1004.3,314.7,1.1,1.7,323.8,0.00,25.3,27.1,"23:48:16",1
"19/08/20","24:00",0.0,26.4,93.5,1004.3,319.8,1.0,1.4,325.4,0.00,25.3,27.2,"23:53:52",1
